| time (UTC) | temp C | wind direction | speed KPH | gust KPH | rain 1hr cm | rain 24hr cm | rain mn cm | humidity % | barometer mb |
| 20260507144551 | 13 | 262 | 9.7 | 24.1 | 0.00 | 0.00 | 0.00 | 63 | 1018.6 |
| 20260507143058 | 13 | 231 | 9.7 | 22.5 | 0.00 | 0.00 | 0.00 | 66 | 1018.7 |
| 20260507141553 | 12 | 284 | 9.7 | 22.5 | 0.00 | 0.00 | 0.00 | 69 | 1018.8 |
| 20260507140047 | 12 | 232 | 8.0 | 20.9 | 0.00 | 0.00 | 0.00 | 70 | 1019.1 |
| 20260507134552 | 11 | 269 | 6.4 | 14.5 | 0.00 | 0.00 | 0.00 | 75 | 1019.1 |
| 20260507133052 | 10 | 279 | 4.8 | 16.1 | 0.00 | 0.00 | 0.00 | 79 | 1019.2 |
| 20260507131550 | 9 | 257 | 3.2 | 11.3 | 0.00 | 0.00 | 0.00 | 82 | 1019.4 |
| 20260507130100 | 8 | 232 | 1.6 | 6.4 | 0.00 | 0.00 | 0.00 | 86 | 1019.4 |
| 20260507124554 | 7 | 237 | 1.6 | 6.4 | 0.00 | 0.03 | 0.00 | 89 | 1019.4 |
| 20260507123106 | 6 | 320 | 0.0 | 1.6 | 0.00 | 0.03 | 0.00 | 90 | 1019.2 |
| 20260507121558 | 5 | 0 | 0.0 | 0.0 | 0.00 | 0.03 | 0.00 | 89 | 1019.3 |
| 20260507120050 | 5 | 0 | 0.0 | 0.0 | 0.00 | 0.03 | 0.00 | 89 | 1019.2 |
| 20260507114553 | 4 | 0 | 0.0 | 0.0 | 0.00 | 0.03 | 0.00 | 87 | 1018.9 |
| 20260507113043 | 4 | 0 | 0.0 | 0.0 | 0.00 | 0.03 | 0.00 | 87 | 1019.0 |
| 20260507111551 | 5 | 0 | 0.0 | 0.0 | 0.00 | 0.03 | 0.00 | 87 | 1018.9 |
| 20260507110048 | 5 | 0 | 0.0 | 0.0 | 0.00 | 0.03 | 0.00 | 87 | 1018.9 |
| 20260507104553 | 5 | 0 | 0.0 | 0.0 | 0.00 | 0.03 | 0.00 | 86 | 1018.9 |
| 20260507103048 | 5 | 0 | 0.0 | 0.0 | 0.00 | 0.03 | 0.00 | 86 | 1018.9 |
| 20260507101558 | 5 | 0 | 0.0 | 0.0 | 0.00 | 0.03 | 0.00 | 86 | 1019.2 |
| 20260507100056 | 5 | 0 | 0.0 | 1.6 | 0.00 | 0.03 | 0.00 | 86 | 1019.2 |
| 20260507094549 | 5 | 263 | 0.0 | 1.6 | 0.00 | 0.03 | 0.00 | 86 | 1019.3 |
| 20260507093051 | 6 | 0 | 0.0 | 0.0 | 0.00 | 0.03 | 0.00 | 85 | 1019.4 |
| 20260507091547 | 6 | 0 | 0.0 | 1.6 | 0.00 | 0.03 | 0.00 | 85 | 1019.5 |
| 20260507090050 | 6 | 0 | 0.0 | 0.0 | 0.00 | 0.03 | 0.00 | 85 | 1019.4 |
| 20260507084551 | 7 | 0 | 0.0 | 0.0 | 0.00 | 0.05 | 0.00 | 85 | 1019.5 |
| 20260507083058 | 7 | 36 | 0.0 | 1.6 | 0.00 | 0.05 | 0.00 | 85 | 1019.5 |
| 20260507081557 | 7 | 0 | 0.0 | 0.0 | 0.00 | 0.05 | 0.00 | 84 | 1019.8 |
| 20260507080049 | 7 | 0 | 0.0 | 0.0 | 0.00 | 0.05 | 0.00 | 83 | 1019.7 |
| 20260507074543 | 7 | 0 | 0.0 | 0.0 | 0.00 | 0.15 | 0.00 | 82 | 1019.9 |
| 20260507073053 | 8 | 0 | 0.0 | 1.6 | 0.00 | 0.15 | 0.00 | 83 | 1019.8 |
| 20260507071546 | 8 | 0 | 0.0 | 3.2 | 0.00 | 0.15 | 0.00 | 83 | 1020.0 |
| 20260507070047 | 8 | 0 | 0.0 | 3.2 | 0.00 | 0.15 | 0.00 | 83 | 1020.3 |
| 20260507064548 | 7 | 0 | 0.0 | 3.2 | 0.00 | 0.20 | 0.00 | 83 | 1020.2 |
| 20260507063050 | 7 | 0 | 0.0 | 0.0 | 0.00 | 0.20 | 0.00 | 83 | 1020.0 |
| 20260507061545 | 7 | 0 | 0.0 | 0.0 | 0.00 | 0.20 | 0.00 | 84 | 1019.9 |
| 20260507060049 | 7 | 0 | 0.0 | 0.0 | 0.00 | 0.20 | 0.00 | 83 | 1020.1 |
| 20260507054545 | 7 | 0 | 0.0 | 0.0 | 0.00 | 0.20 | 0.00 | 84 | 1020.2 |
| 20260507053049 | 7 | 0 | 0.0 | 0.0 | 0.00 | 0.20 | 0.00 | 84 | 1020.1 |
| 20260507051549 | 7 | 0 | 0.0 | 0.0 | 0.00 | 0.20 | 0.00 | 83 | 1020.1 |
| 20260507050055 | 7 | 36 | 0.0 | 3.2 | 0.00 | 0.20 | 0.00 | 82 | 1020.0 |
| 20260507044547 | 7 | 0 | 0.0 | 0.0 | 0.00 | 0.20 | 0.20 | 80 | 1020.1 |
| 20260507043045 | 7 | 0 | 0.0 | 0.0 | 0.00 | 0.20 | 0.20 | 77 | 1019.9 |
| 20260507041547 | 8 | 0 | 0.0 | 0.0 | 0.00 | 0.20 | 0.20 | 75 | 1019.8 |
| 20260507040044 | 8 | 0 | 0.0 | 0.0 | 0.00 | 0.20 | 0.20 | 74 | 1020.2 |
| 20260507034549 | 9 | 0 | 0.0 | 0.0 | 0.00 | 0.20 | 0.20 | 73 | 1020.2 |
| 20260507033047 | 10 | 0 | 0.0 | 0.0 | 0.00 | 0.20 | 0.20 | 73 | 1020.2 |
| 20260507031550 | 10 | 0 | 0.0 | 0.0 | 0.00 | 0.20 | 0.20 | 72 | 1020.2 |
| 20260507030049 | 10 | 0 | 0.0 | 0.0 | 0.00 | 0.20 | 0.20 | 70 | 1020.1 |
| 20260507024559 | 10 | 0 | 0.0 | 1.6 | 0.00 | 0.20 | 0.20 | 70 | 1020.1 |
| 20260507023044 | 10 | 0 | 0.0 | 0.0 | 0.00 | 0.20 | 0.20 | 66 | 1019.8 |
| 20260507021549 | 11 | 0 | 0.0 | 0.0 | 0.00 | 0.20 | 0.20 | 65 | 1019.9 |
| 20260507020106 | 11 | 0 | 0.0 | 0.0 | 0.00 | 0.20 | 0.20 | 63 | 1019.3 |
| 20260507014554 | 12 | 0 | 0.0 | 1.6 | 0.00 | 0.20 | 0.20 | 60 | 1019.1 |
| 20260507013049 | 12 | 0 | 0.0 | 4.8 | 0.00 | 0.20 | 0.20 | 57 | 1019.0 |
| 20260507011542 | 13 | 0 | 0.0 | 3.2 | 0.00 | 0.20 | 0.20 | 58 | 1018.9 |
| 20260507010050 | 13 | 0 | 0.0 | 3.2 | 0.00 | 0.20 | 0.20 | 56 | 1018.8 |
| 20260507004551 | 13 | 360 | 3.2 | 6.4 | 0.00 | 0.20 | 0.20 | 54 | 1018.7 |
| 20260507003050 | 13 | 360 | 1.6 | 4.8 | 0.00 | 0.20 | 0.20 | 54 | 1018.7 |
| 20260507001546 | 13 | 360 | 1.6 | 8.0 | 0.00 | 0.20 | 0.20 | 51 | 1018.8 |
| 20260507000049 | 14 | 19 | 6.4 | 12.9 | 0.00 | 0.20 | 0.20 | 50 | 1018.7 |
| 20260506234556 | 14 | 42 | 3.2 | 11.3 | 0.00 | 0.20 | 0.20 | 49 | 1018.6 |
| 20260506233048 | 15 | 35 | 0.0 | 14.5 | 0.00 | 0.20 | 0.20 | 49 | 1018.5 |
| 20260506231553 | 15 | 61 | 4.8 | 14.5 | 0.00 | 0.20 | 0.20 | 50 | 1018.6 |
| 20260506230058 | 15 | 20 | 4.8 | 12.9 | 0.00 | 0.20 | 0.20 | 50 | 1018.5 |
| 20260506224548 | 15 | 52 | 4.8 | 12.9 | 0.00 | 0.20 | 0.20 | 49 | 1018.4 |
| 20260506223053 | 15 | 45 | 8.0 | 14.5 | 0.00 | 0.20 | 0.20 | 48 | 1018.2 |
| 20260506221548 | 15 | 53 | 3.2 | 12.9 | 0.00 | 0.20 | 0.20 | 47 | 1018.3 |
| 20260506220052 | 15 | 31 | 4.8 | 17.7 | 0.00 | 0.20 | 0.20 | 46 | 1018.4 |
| 20260506214547 | 15 | 66 | 8.0 | 22.5 | 0.00 | 0.20 | 0.20 | 47 | 1018.5 |
| 20260506213102 | 15 | 36 | 6.4 | 17.7 | 0.00 | 0.20 | 0.20 | 45 | 1018.6 |
| 20260506211604 | 15 | 38 | 4.8 | 16.1 | 0.00 | 0.20 | 0.20 | 47 | 1018.6 |
| 20260506210043 | 15 | 89 | 6.4 | 17.7 | 0.00 | 0.20 | 0.20 | 45 | 1018.8 |
| 20260506204554 | 15 | 250 | 4.8 | 17.7 | 0.00 | 0.20 | 0.20 | 44 | 1019.1 |
| 20260506203052 | 15 | 62 | 9.7 | 19.3 | 0.00 | 0.20 | 0.20 | 45 | 1019.3 |
| 20260506201600 | 15 | 45 | 6.4 | 20.9 | 0.00 | 0.20 | 0.20 | 47 | 1019.3 |
| 20260506200053 | 15 | 62 | 6.4 | 22.5 | 0.00 | 0.20 | 0.20 | 46 | 1019.7 |
| 20260506194555 | 14 | 29 | 11.3 | 22.5 | 0.00 | 0.20 | 0.20 | 46 | 1019.8 |
| 20260506193047 | 14 | 82 | 9.7 | 20.9 | 0.00 | 0.20 | 0.20 | 49 | 1019.8 |
| 20260506191549 | 13 | 38 | 8.0 | 20.9 | 0.00 | 0.20 | 0.20 | 48 | 1019.7 |
| 20260506190050 | 13 | 118 | 6.4 | 20.9 | 0.00 | 0.20 | 0.20 | 52 | 1019.8 |
| 20260506184604 | 13 | 41 | 6.4 | 24.1 | 0.00 | 0.20 | 0.20 | 49 | 1020.1 |
| 20260506183100 | 13 | 76 | 8.0 | 27.4 | 0.00 | 0.20 | 0.20 | 52 | 1020.2 |
| 20260506181549 | 13 | 19 | 9.7 | 20.9 | 0.00 | 0.20 | 0.20 | 51 | 1020.4 |
| 20260506180054 | 13 | 57 | 9.7 | 19.3 | 0.00 | 0.20 | 0.20 | 51 | 1020.8 |
| 20260506174548 | 13 | 23 | 9.7 | 22.5 | 0.00 | 0.20 | 0.20 | 56 | 1020.9 |
| 20260506173054 | 12 | 316 | 6.4 | 19.3 | 0.00 | 0.20 | 0.20 | 57 | 1020.9 |
| 20260506171552 | 12 | 43 | 11.3 | 20.9 | 0.00 | 0.20 | 0.20 | 60 | 1020.9 |
| 20260506170108 | 12 | 79 | 8.0 | 17.7 | 0.00 | 0.20 | 0.20 | 64 | 1020.9 |
| 20260506164542 | 11 | 35 | 6.4 | 17.7 | 0.00 | 0.20 | 0.20 | 70 | 1020.9 |
| 20260506163100 | 10 | 40 | 8.0 | 17.7 | 0.00 | 0.20 | 0.20 | 70 | 1021.0 |
| 20260506161550 | 10 | 31 | 4.8 | 16.1 | 0.00 | 0.20 | 0.20 | 73 | 1021.0 |
| 20260506160051 | 10 | 57 | 4.8 | 14.5 | 0.00 | 0.20 | 0.20 | 74 | 1021.1 |
| 20260506154554 | 9 | 5 | 4.8 | 12.9 | 0.00 | 0.20 | 0.20 | 77 | 1021.0 |
| 20260506153051 | 8 | 40 | 4.8 | 11.3 | 0.00 | 0.20 | 0.20 | 78 | 1020.7 |
| 20260506151546 | 8 | 350 | 3.2 | 12.9 | 0.00 | 0.20 | 0.20 | 80 | 1021.1 |
| 20260506150050 | 8 | 5 | 3.2 | 12.9 | 0.00 | 0.20 | 0.20 | 80 | 1020.9 |